sat.trackr.live / text

‹ back to catalog

TIANHUI 2-02A

NORAD 49071 · 2021-074A

PAYLOAD ACTIVE UNKNOWN

§ Identity

Operator
Country
PRC
Launch date
2021-08-18
Launch site
TAISC
Launch vehicle
Mass (kg)
RCS (m²)

External: N2YO · Heavens-Above · Gunter

§ Orbital elements

Epoch: 2026-05-24T10:41:59.886528Z

Period
94.94 min
Inclination
97.4809°
Eccentricity
0.0001802
Mean motion
15.16732675 rev/d
Perigee alt
514.5 km
Apogee alt
517.0 km
Semi-major
6,893.9 km
B*
7.0708e-5
RAAN
147.9862°
Arg perigee
113.4634°
Mean anomaly
246.6789°
Rev number
26,367

§ Raw data

TIANHUI 2-02A1 49071U 21074A   26144.44583202  .00001320  00000+0  70708-4 0  99912 49071  97.4809 147.9862 0001802 113.4634 246.6789 15.16732675263679

JSON: /api/v1/satellites/49071 · /tle

For live sub-satellite position, see the globe view (requires WebGL).

§ Visibility from observer

Set your observer location to see the next 7 days of passes ≥ 10°. The values pass through the URL so the page stays shareable.

No JS? Fill the form by hand. The geolocation button needs JavaScript.